Terminal Aerodrome Forecast
Issued by NWS King Salmon, AK

Home | Current Version | Previous Version | Text Only | Print | Product List | Glossary On
Versions: 1 2 3 4 5 6 7 8 9 10 11 12 13 14 15 16 17 18
000
FTAK31 PANC 232322
TAFAKN
TAF
PAKN 232322Z 2400/2424 12010KT P6SM FEW050 SCT130
     FM240600 09005KT P6SM BKN130
     FM242200 11009KT P6SM SCT060 BKN100=

USA.gov is the U.S. government's official web portal to all federal, state and local government web resources and services.